Winfield, KS

7:34 PM CST on December 06, 2019 (GMT -0600)
Strother

Weather History for KWLD - October, 2019

Change the Weather History Date:

Wednesday, October 9, 2019

  Actual Average Record
Temperature  
Mean Temperature 64 °F -  
Max Temperature 72 °F 70 °F 87 °F (2010)
Min Temperature 55 °F 48 °F 25 °F (2000)
Degree Days  
Heating Degree Days 2    
Growing Degree Days 14 (Base 50)    
Moisture  
Dew Point 55 °F    
Average Humidity 78    
Maximum Humidity 89    
Minimum Humidity 66    
Precipitation  
Precipitation 0.06 in - - ()
Sea Level Pressure  
Sea Level Pressure 29.85 in    
Wind  
Wind Speed 9 mph ()    
Max Wind Speed 21 mph    
Max Gust Speed 34 mph    
Visibility 10.0 miles    
Events Rain , Thunderstorm    
Averages and records for this station are not official NWS values.
T = Trace of Precipitation, MM = Missing Value Source: Averaged Metar Reports

Daily Weather History Graph

Daily Weather History Graph

Search for Another Location

Airport or City:

Astronomy

Oct. 09, 2019 Rise Set
Actual Time 7:30 AM CDT 6:59 PM CDT
Civil Twilight 7:04 AM CDT 7:25 PM CDT
Nautical Twilight 6:34 AM CDT 7:56 PM CDT
Astronomical Twilight 6:03 AM CDT 8:26 PM CDT
Moon 5:25 PM CDT (10/9) 3:25 AM CDT (10/9)
Length of Visible Light 12h 21m
Length of Day
11h 29m
Waxing Gibbous, 85% of the Moon is Illuminated
Oct 9
Waxing Gibbous
Oct 13
Full
Oct 21
Last Quarter
Oct 27
New
Nov 4
First Quarter

Hourly Weather History & Observations

Time (CDT) Temp. Dew Point Humidity Pressure Visibility Wind Dir Wind Speed Gust Speed Precip Events Conditions
12:54 AM 55.9 °F 48.0 °F 75% 29.94 in 10.0 mi SE 6.9 mph - N/A   Clear
1:54 AM 55.9 °F 48.0 °F 75% 29.93 in 10.0 mi SE 10.4 mph - N/A   Clear
2:54 AM 57.9 °F 48.0 °F 70% 29.91 in 10.0 mi SSE 11.5 mph - N/A   Scattered Clouds
3:54 AM 59.0 °F 48.9 °F 69% 29.89 in 10.0 mi SSE 8.1 mph - N/A   Overcast
4:05 AM 57.0 °F 50.0 °F 77% 29.92 in 10.0 mi SSE 6.9 mph - 0.00 in Rain , Thunderstorm Light Rain
4:31 AM 57.0 °F 51.1 °F 81% 29.91 in 10.0 mi ESE 5.8 mph - 0.01 in Rain , Thunderstorm Light Rain
4:54 AM 57.0 °F 51.1 °F 81% 29.89 in 10.0 mi SE 9.2 mph - 0.01 in Thunderstorm Overcast
5:03 AM 57.0 °F 51.1 °F 81% 29.91 in 10.0 mi SE 8.1 mph - N/A   Overcast
5:33 AM 57.9 °F 51.1 °F 78% 29.91 in 10.0 mi ESE 6.9 mph - N/A Thunderstorm Overcast
5:49 AM 57.2 °F 51.8 °F 82% 29.92 in 10.0 mi SSE 5.8 mph - N/A   Overcast
5:54 AM 57.0 °F 51.1 °F 81% 29.90 in 10.0 mi SE 6.9 mph - N/A   Overcast
6:25 AM 57.0 °F 52.0 °F 83% 29.90 in 10.0 mi ESE 10.4 mph - 0.01 in Rain , Thunderstorm Light Thunderstorms and Rain
6:40 AM 55.9 °F 51.1 °F 84% 29.91 in 10.0 mi SE 8.1 mph - 0.02 in Rain Light Rain
6:54 AM 57.0 °F 51.1 °F 81% 29.91 in 10.0 mi SE 8.1 mph - 0.02 in   Mostly Cloudy
7:45 AM 55.9 °F 52.0 °F 87% 29.92 in 10.0 mi ESE 5.8 mph - N/A   Overcast
7:54 AM 57.0 °F 52.0 °F 83% 29.91 in 10.0 mi ESE 8.1 mph - N/A   Overcast
8:54 AM 57.0 °F 53.1 °F 87% 29.91 in 10.0 mi SE 5.8 mph - 0.01 in Rain Light Rain
9:54 AM 57.0 °F 54.0 °F 89% 29.91 in 10.0 mi ESE 10.4 mph - 0.02 in   Mostly Cloudy
10:54 AM 57.9 °F 54.0 °F 87% 29.88 in 10.0 mi ESE 17.3 mph 25.3 mph N/A   Overcast
11:54 AM 61.0 °F 55.0 °F 81% 29.86 in 10.0 mi SE 16.1 mph 25.3 mph N/A   Clear
12:54 PM 66.0 °F 57.0 °F 73% 29.83 in 10.0 mi SSE 18.4 mph 28.8 mph 0.00 in Rain Light Rain
1:54 PM 69.1 °F 57.9 °F 68% 29.78 in 10.0 mi SSE 18.4 mph 34.5 mph 0.00 in Rain Light Rain
2:54 PM 71.1 °F 59.0 °F 66% 29.74 in 10.0 mi SSE 20.7 mph 29.9 mph 0.00 in Rain Light Rain
3:54 PM 72.0 °F 61.0 °F 68% 29.73 in 10.0 mi SSE 19.6 mph 29.9 mph 0.00 in Rain Light Rain
4:54 PM 72.0 °F 61.0 °F 68% 29.72 in 10.0 mi SSE 18.4 mph 27.6 mph 0.00 in Rain Light Rain
5:54 PM 70.0 °F 60.1 °F 71% 29.72 in 10.0 mi SE 16.1 mph 26.5 mph 0.00 in Rain Light Rain
6:54 PM 69.1 °F 61.0 °F 75% 29.73 in 10.0 mi SE 11.5 mph - 0.00 in Rain Light Rain
7:54 PM 66.9 °F 60.1 °F 79% 29.74 in 10.0 mi SE 13.8 mph - 0.00 in Rain Light Rain
8:54 PM 66.0 °F 61.0 °F 84% 29.74 in 10.0 mi SE 13.8 mph 23.0 mph 0.00 in Rain Light Rain
9:54 PM 66.0 °F 61.0 °F 84% 29.75 in 10.0 mi SE 12.7 mph - 0.00 in Rain Light Rain
10:54 PM 66.9 °F 60.1 °F 79% 29.74 in 10.0 mi SSE 19.6 mph 28.8 mph 0.00 in Rain Light Rain
11:54 PM 68.0 °F 61.0 °F 78% 29.73 in 10.0 mi SSE 15.0 mph 26.5 mph 0.00 in Rain Light Rain